カタログに戻る

FENGYUN 1C DEB

運用中SSO
NORAD 30401·DEBRIS·🇨🇳 China

打ち上げ May 10, 1999 から Taiyuan Satellite Launch Center

Loading…

次のパス (今後24時間)

TLE

最新Source: Space-Track

元期: Sep 14, 2026, 16:11 UTC

1 30401U 99025ADQ 26257.67467698  .00000224  00000-0  10196-3 0  9996
2 30401  98.9091 145.8349 0107866  47.7432 313.2835 14.28189915 22439

AllMySatでFENGYUN 1C DEBをリアルタイム追跡

Download on the App Store